User: anonymous   Login
Location: Unspecified
(0.0000°N, 0.0000°E)
Time: 19:04:32
(UTC+00:00)
Language:

CHUBUSAT 3 - Orbit

View from above orbital plane
View from above orbital plane
View from above satellite
View from above satellite

Ground track
Ground track

The orbit data is extracted from the following two-line orbital elements,

1 41339U 16012C   17083.96392656 +.00000378 +00000-0 +22945-4 0  9999
2 41339 031.0118 286.4269 0013940 311.5281 048.4146 14.99884847060310
Epoch (UTC): 24 March 2017 23:08:03
Eccentricity: 0.0013940
inclination: 31.0118°
perigee height: 557 km
apogee height: 577 km
right ascension of ascending node: 286.4269°
argument of perigee: 311.5281°
revolutions per day: 14.99884847
mean anomaly at epoch: 48.4146°
orbit number at epoch: 6031

The dashed part of the orbit path shows where the satellite is in the earth's shadow,  

DLR